Weather in Gallipoli

Italy     40°03′17″N   17°59′46″E
temp.,
°C
wind,
m/s
gust,
m/s
humid.,
%
clouds,
%
prec.,
mm/h
press.,
hPa
HPBL,
m
4 march, thu
thu401:00+11n34710 0.0 1028223
04:00+11n23630 0.0 1027192
07:00+11n12620 0.0 1026225
10:00+13wsw23580 0.0 1026392
13:00+13sw33551 0.0 1024371
16:00+14ssw445825 0.0 1023453
19:00+13s566713 0.0 1022428
22:00+13s67730 0.0 1022549
5 march, fri
fri501:00+13s57750 0.0 1021538
04:00+13s67783 0.0 1019576
07:00+13s67795 0.0 1019726
10:00+14s677653 0.0 1020837
13:00+14ssw677570 0.1 1019882
16:00+14s787793 0.1 1018955
19:00+14s797697 0.1 1019770
22:00+14ssw7874100 0.0 1020689
6 march, sat
sat601:00+14ssw6879100 0.3 1020760
04:00+13s3476100 0.3 1019544
07:00+13ssw116998 0.3 1020365
10:00+14n44712 0.0 1022736
13:00+16nnw56641 0.1 1022382
16:00+15nne67620 0.0 1022396
19:00+13nne68730 0.0 1023464
22:00+12n34760 0.0 1024263
7 march, sun
sun701:00+12nnw57790 0.0 1024452
04:00+12n69790 0.0 1023460
07:00+11nne57760 0.0 1024433
10:00+13n56630 0.0 1024843
13:00+14n55631 0.0 10231194
16:00+14nne556510 0.0 10221030
19:00+12nne56715 0.0 1021486
22:00+11nne45730 0.0 1021308
8 march, mon
mon801:00+11ne22760 0.0 1020186
04:00+11ne227538 0.0 1018167
07:00+11e237469 0.0 1018163
10:00+13sse2266100 0.0 1018383
13:00+13s446992 0.0 1017476
16:00+14s446891 0.0 1015501
19:00+13sse447187 0.0 1015488
22:00+13sse5774100 0.0 1015703